Time,TemperatureF,DewpointF,PressureIn,WindDirection,WindDirectionDegrees,WindSpeedMPH,WindSpeedGustMPH,Humidity,HourlyPrecipIn,Conditions,Clouds,dailyrainin,SoftwareType,DateUTC
2013-08-22 00:00:00,61.0,37.1,29.68,WNW,285,0.0,4.0,41,0.00,CLR,,0.00,WeatherDisplay:10.37,2013-08-22 07:00:00,
2013-08-22 00:05:00,60.8,36.9,29.68,WNW,285,1.0,4.0,41,0.00,CLR,,0.00,WeatherDisplay:10.37,2013-08-22 07:05:00,
2013-08-22 00:10:00,60.8,36.9,29.68,SW,236,0.0,3.0,41,0.00,CLR,,0.00,WeatherDisplay:10.37,2013-08-22 07:10:00,
2013-08-22 00:15:00,60.8,36.9,29.68,SW,233,0.0,4.0,41,0.00,CLR,,0.00,WeatherDisplay:10.37,2013-08-22 07:15:00,
2013-08-22 00:20:00,60.6,36.8,29.68,East,89,0.0,5.0,41,0.00,CLR,,0.00,WeatherDisplay:10.37,2013-08-22 07:20:00,
2013-08-22 00:25:00,60.6,36.8,29.68,South,174,0.0,6.0,41,0.00,CLR,,0.00,WeatherDisplay:10.37,2013-08-22 07:25:00,
2013-08-22 00:30:00,60.6,36.8,29.68,WSW,245,0.0,6.0,41,0.00,CLR,,0.00,WeatherDisplay:10.37,2013-08-22 07:30:00,
2013-08-22 00:35:00,60.6,36.8,29.68,WSW,255,0.0,6.0,41,0.00,CLR,,0.00,WeatherDisplay:10.37,2013-08-22 07:35:00,
2013-08-22 00:40:00,60.6,37.4,29.68,WSW,252,2.0,7.0,42,0.00,CLR,,0.00,WeatherDisplay:10.37,2013-08-22 07:40:00,
2013-08-22 00:45:00,60.6,37.4,29.68,West,269,0.0,3.0,42,0.00,CLR,,0.00,WeatherDisplay:10.37,2013-08-22 07:45:00,
2013-08-22 00:50:00,60.6,37.4,29.68,West,263,3.0,6.0,42,0.00,CLR,,0.00,WeatherDisplay:10.37,2013-08-22 07:50:00,
2013-08-22 00:55:00,60.5,37.3,29.68,West,267,0.0,3.0,42,0.00,CLR,,0.00,WeatherDisplay:10.37,2013-08-22 07:55:00,
2013-08-22 01:00:00,60.4,37.2,29.68,West,281,0.0,3.0,42,0.00,CLR,,0.00,WeatherDisplay:10.37,2013-08-22 08:00:00,
2013-08-22 01:05:00,60.3,37.1,29.68,WNW,289,0.0,0.0,42,0.00,CLR,,0.00,WeatherDisplay:10.37,2013-08-22 08:05:00,
2013-08-22 01:10:00,60.3,37.7,29.68,WNW,290,0.0,3.0,43,0.00,CLR,,0.00,WeatherDisplay:10.37,2013-08-22 08:10:00,
2013-08-22 01:15:00,60.1,37.5,29.68,West,280,0.0,3.0,43,0.00,CLR,,0.00,WeatherDisplay:10.37,2013-08-22 08:15:00,
2013-08-22 01:20:00,60.1,37.5,29.68,West,261,0.0,5.0,43,0.00,CLR,,0.00,WeatherDisplay:10.37,2013-08-22 08:20:00,
2013-08-22 01:25:00,60.1,37.5,29.68,WSW,249,0.0,5.0,43,0.00,CLR,,0.00,WeatherDisplay:10.37,2013-08-22 08:25:00,
2013-08-22 01:30:00,60.3,37.7,29.68,SW,232,0.0,4.0,43,0.00,CLR,,0.00,WeatherDisplay:10.37,2013-08-22 08:30:00,
2013-08-22 01:35:00,60.2,37.6,29.68,SSW,210,0.0,0.0,43,0.00,CLR,,0.00,WeatherDisplay:10.37,2013-08-22 08:35:00,
2013-08-22 01:40:00,60.3,37.7,29.68,SSW,213,0.0,3.0,43,0.00,CLR,,0.00,WeatherDisplay:10.37,2013-08-22 08:40:00,
2013-08-22 01:45:00,60.1,37.5,29.68,SW,223,0.0,3.0,43,0.00,CLR,,0.00,WeatherDisplay:10.37,2013-08-22 08:45:00,
2013-08-22 01:50:00,60.1,38.1,29.68,WSW,244,1.0,6.0,44,0.00,CLR,,0.00,WeatherDisplay:10.37,2013-08-22 08:50:00,
2013-08-22 01:55:00,60.1,37.5,29.68,NW,306,0.0,3.0,43,0.00,CLR,,0.00,WeatherDisplay:10.37,2013-08-22 08:55:00,
2013-08-22 02:00:00,59.9,37.3,29.68,North,7,1.0,3.0,43,0.00,CLR,,0.00,WeatherDisplay:10.37,2013-08-22 09:00:00,
2013-08-22 02:05:00,59.7,37.2,29.68,North,2,0.0,3.0,43,0.00,CLR,,0.00,WeatherDisplay:10.37,2013-08-22 09:05:00,
2013-08-22 02:10:00,59.6,37.6,29.68,NW,322,0.0,3.0,44,0.00,CLR,,0.00,WeatherDisplay:10.37,2013-08-22 09:10:00,
2013-08-22 02:15:00,59.7,37.7,29.68,NNW,334,2.0,3.0,44,0.00,CLR,,0.00,WeatherDisplay:10.37,2013-08-22 09:15:00,
2013-08-22 02:20:00,59.5,37.6,29.68,North,350,0.0,0.0,44,0.00,CLR,,0.00,WeatherDisplay:10.37,2013-08-22 09:20:00,
2013-08-22 02:25:00,59.5,37.6,29.65,NNE,24,0.0,2.0,44,0.00,CLR,,0.00,WeatherDisplay:10.37,2013-08-22 09:25:00,
2013-08-22 02:30:00,59.5,37.6,29.65,NE,52,2.0,3.0,44,0.00,CLR,,0.00,WeatherDisplay:10.37,2013-08-22 09:30:00,
2013-08-22 02:35:00,59.5,37.6,29.65,ESE,114,0.0,3.0,44,0.00,CLR,,0.00,WeatherDisplay:10.37,2013-08-22 09:35:00,
2013-08-22 02:40:00,59.5,37.6,29.68,SE,143,5.0,6.0,44,0.00,CLR,,0.00,WeatherDisplay:10.37,2013-08-22 09:40:00,
2013-08-22 02:45:00,59.7,37.8,29.68,SSE,150,0.0,6.0,44,0.00,CLR,,0.00,WeatherDisplay:10.37,2013-08-22 09:45:00,
2013-08-22 02:50:00,59.7,37.8,29.68,East,93,0.0,2.0,44,0.00,CLR,,0.00,WeatherDisplay:10.37,2013-08-22 09:50:00,
2013-08-22 02:55:00,59.7,38.3,29.68,ENE,58,0.0,5.0,45,0.00,CLR,,0.00,WeatherDisplay:10.37,2013-08-22 09:55:00,
2013-08-22 03:00:00,59.7,38.3,29.68,WSW,258,2.0,6.0,45,0.00,CLR,,0.00,WeatherDisplay:10.37,2013-08-22 10:00:00,
2013-08-22 03:05:00,59.9,38.5,29.68,WSW,247,0.0,5.0,45,0.00,CLR,,0.00,WeatherDisplay:10.37,2013-08-22 10:05:00,
2013-08-22 03:10:00,59.9,38.5,29.68,West,276,2.0,6.0,45,0.00,CLR,,0.00,WeatherDisplay:10.37,2013-08-22 10:10:00,
2013-08-22 03:15:00,59.9,38.5,29.68,WNW,298,0.0,5.0,45,0.00,CLR,,0.00,WeatherDisplay:10.37,2013-08-22 10:15:00,
2013-08-22 03:20:00,59.9,38.5,29.68,NW,311,2.0,5.0,45,0.00,CLR,,0.00,WeatherDisplay:10.37,2013-08-22 10:20:00,
2013-08-22 03:25:00,60.1,38.7,29.68,NNW,342,0.0,3.0,45,0.00,CLR,,0.00,WeatherDisplay:10.37,2013-08-22 10:25:00,
2013-08-22 03:30:00,60.1,38.7,29.68,SW,228,2.0,4.0,45,0.00,CLR,,0.00,WeatherDisplay:10.37,2013-08-22 10:30:00,
2013-08-22 03:35:00,60.1,38.7,29.68,SW,221,2.0,4.0,45,0.00,CLR,,0.00,WeatherDisplay:10.37,2013-08-22 10:35:00,
2013-08-22 03:40:00,60.1,38.7,29.68,WSW,251,3.0,5.0,45,0.00,CLR,,0.00,WeatherDisplay:10.37,2013-08-22 10:40:00,
2013-08-22 03:45:00,60.1,38.1,29.68,WSW,243,2.0,6.0,44,0.00,CLR,,0.00,WeatherDisplay:10.37,2013-08-22 10:45:00,
2013-08-22 03:50:00,59.9,37.9,29.68,SW,214,2.0,5.0,44,0.00,CLR,,0.00,WeatherDisplay:10.37,2013-08-22 10:50:00,
2013-08-22 05:30:00,59.9,37.9,29.68,SSW,210,0.0,3.0,44,0.00,CLR,,0.00,WeatherDisplay:10.37,2013-08-22 12:30:00,
2013-08-22 05:35:00,60.1,38.1,29.68,NNW,345,2.0,5.0,44,0.00,CLR,,0.00,WeatherDisplay:10.37,2013-08-22 12:35:00,
2013-08-22 05:40:00,59.9,37.9,29.68,North,349,0.0,5.0,44,0.00,CLR,,0.00,WeatherDisplay:10.37,2013-08-22 12:40:00,
2013-08-22 05:45:00,59.9,37.9,29.68,West,268,0.0,4.0,44,0.00,CLR,,0.00,WeatherDisplay:10.37,2013-08-22 12:45:00,
2013-08-22 05:50:00,59.9,37.9,29.68,WSW,241,0.0,5.0,44,0.00,CLR,,0.00,WeatherDisplay:10.37,2013-08-22 12:50:00,
2013-08-22 05:55:00,59.9,37.9,29.68,West,277,0.0,5.0,44,0.00,CLR,,0.00,WeatherDisplay:10.37,2013-08-22 12:55:00,
2013-08-22 06:00:00,59.9,37.9,29.68,NW,317,0.0,3.0,44,0.00,CLR,,0.00,WeatherDisplay:10.37,2013-08-22 13:00:00,
2013-08-22 06:05:00,59.9,37.9,29.68,West,271,0.0,5.0,44,0.00,CLR,,0.00,WeatherDisplay:10.37,2013-08-22 13:05:00,
2013-08-22 06:10:00,59.9,37.9,29.68,SE,145,0.0,4.0,44,0.00,CLR,,0.00,WeatherDisplay:10.37,2013-08-22 13:10:00,
2013-08-22 06:15:00,59.9,37.9,29.68,SSW,192,2.0,6.0,44,0.00,CLR,,0.00,WeatherDisplay:10.37,2013-08-22 13:15:00,
2013-08-22 06:20:00,59.9,37.9,29.68,WSW,237,0.0,5.0,44,0.00,CLR,,0.00,WeatherDisplay:10.37,2013-08-22 13:20:00,
2013-08-22 06:25:00,59.9,37.9,29.68,SW,220,0.0,5.0,44,0.00,CLR,,0.00,WeatherDisplay:10.37,2013-08-22 13:25:00,
2013-08-22 06:30:00,59.9,37.9,29.68,South,177,2.0,3.0,44,0.00,CLR,,0.00,WeatherDisplay:10.37,2013-08-22 13:30:00,
2013-08-22 06:35:00,59.9,37.9,29.68,West,272,2.0,5.0,44,0.00,CLR,,0.00,WeatherDisplay:10.37,2013-08-22 13:35:00,
2013-08-22 06:40:00,59.9,37.9,29.68,NW,307,0.0,4.0,44,0.00,CLR,,0.00,WeatherDisplay:10.37,2013-08-22 13:40:00,
2013-08-22 06:45:00,59.9,37.9,29.68,West,265,2.0,6.0,44,0.00,CLR,,0.00,WeatherDisplay:10.37,2013-08-22 13:45:00,
2013-08-22 06:50:00,59.9,37.9,29.68,West,264,0.0,4.0,44,0.00,CLR,,0.00,WeatherDisplay:10.37,2013-08-22 13:50:00,
2013-08-22 06:55:00,59.9,37.9,29.68,West,277,0.0,5.0,44,0.00,CLR,,0.00,WeatherDisplay:10.37,2013-08-22 13:55:00,
2013-08-22 07:00:00,59.9,37.9,29.68,WSW,253,2.0,3.0,44,0.00,CLR,,0.00,WeatherDisplay:10.37,2013-08-22 14:00:00,
2013-08-22 07:05:00,59.9,38.5,29.68,WNW,282,0.0,5.0,45,0.00,CLR,,0.00,WeatherDisplay:10.37,2013-08-22 14:05:00,
2013-08-22 07:10:00,59.9,37.9,29.71,WNW,296,0.0,5.0,44,0.00,CLR,,0.00,WeatherDisplay:10.37,2013-08-22 14:10:00,
2013-08-22 07:15:00,59.9,38.5,29.71,West,264,0.0,2.0,45,0.00,CLR,,0.00,WeatherDisplay:10.37,2013-08-22 14:15:00,
2013-08-22 07:20:00,59.9,38.5,29.71,WSW,258,0.0,3.0,45,0.00,CLR,,0.00,WeatherDisplay:10.37,2013-08-22 14:20:00,
2013-08-22 07:25:00,59.9,38.5,29.71,NW,305,0.0,4.0,45,0.00,CLR,,0.00,WeatherDisplay:10.37,2013-08-22 14:25:00,
2013-08-22 07:30:00,60.1,38.7,29.71,North,354,0.0,3.0,45,0.00,CLR,,0.00,WeatherDisplay:10.37,2013-08-22 14:30:00,
2013-08-22 07:35:00,60.1,38.7,29.71,NNW,338,0.0,5.0,45,0.00,CLR,,0.00,WeatherDisplay:10.37,2013-08-22 14:35:00,
2013-08-22 07:40:00,60.1,38.7,29.71,SW,230,0.0,6.0,45,0.00,CLR,,0.00,WeatherDisplay:10.37,2013-08-22 14:40:00,
2013-08-22 07:45:00,60.3,38.8,29.71,SE,139,0.0,0.0,45,0.00,CLR,,0.00,WeatherDisplay:10.37,2013-08-22 14:45:00,
2013-08-22 07:50:00,60.3,38.8,29.71,SE,135,0.0,3.0,45,0.00,CLR,,0.00,WeatherDisplay:10.37,2013-08-22 14:50:00,
2013-08-22 07:55:00,60.3,38.8,29.71,SE,144,0.0,3.0,45,0.00,CLR,,0.00,WeatherDisplay:10.37,2013-08-22 14:55:00,
2013-08-22 08:00:00,60.3,38.8,29.71,South,176,0.0,3.0,45,0.00,CLR,,0.00,WeatherDisplay:10.37,2013-08-22 15:00:00,
2013-08-22 08:05:00,60.3,38.8,29.71,WNW,297,0.0,3.0,45,0.00,CLR,,0.00,WeatherDisplay:10.37,2013-08-22 15:05:00,
2013-08-22 08:10:00,60.4,39.0,29.71,NE,41,0.0,0.0,45,0.00,CLR,,0.00,WeatherDisplay:10.37,2013-08-22 15:10:00,
2013-08-22 08:15:00,60.4,39.0,29.71,NNE,19,0.0,4.0,45,0.00,CLR,,0.00,WeatherDisplay:10.37,2013-08-22 15:15:00,
2013-08-22 08:20:00,60.4,39.0,29.71,West,264,0.0,6.0,45,0.00,CLR,,0.00,WeatherDisplay:10.37,2013-08-22 15:20:00,
2013-08-22 08:25:00,60.4,39.0,29.71,SW,232,1.0,3.0,45,0.00,CLR,,0.00,WeatherDisplay:10.37,2013-08-22 15:25:00,
2013-08-22 08:30:00,60.4,39.0,29.71,West,260,0.0,3.0,45,0.00,CLR,,0.00,WeatherDisplay:10.37,2013-08-22 15:30:00,
2013-08-22 08:35:00,60.4,39.0,29.71,West,279,0.0,3.0,45,0.00,CLR,,0.00,WeatherDisplay:10.37,2013-08-22 15:35:00,
2013-08-22 08:40:00,60.5,38.5,29.74,NW,324,0.0,3.0,44,0.00,CLR,,0.00,WeatherDisplay:10.37,2013-08-22 15:40:00,
2013-08-22 08:45:00,60.6,38.6,29.74,North,10,0.0,2.0,44,0.00,CLR,,0.00,WeatherDisplay:10.37,2013-08-22 15:45:00,
2013-08-22 08:50:00,60.6,38.6,29.74,ENE,62,1.0,3.0,44,0.00,CLR,,0.00,WeatherDisplay:10.37,2013-08-22 15:50:00,
2013-08-22 08:55:00,60.6,38.6,29.71,East,84,0.0,3.0,44,0.00,CLR,,0.00,WeatherDisplay:10.37,2013-08-22 15:55:00,
2013-08-22 09:00:00,60.6,38.6,29.71,SSE,150,0.0,5.0,44,0.00,CLR,,0.00,WeatherDisplay:10.37,2013-08-22 16:00:00,
2013-08-22 09:05:00,60.8,38.7,29.71,SE,144,0.0,4.0,44,0.00,CLR,,0.00,WeatherDisplay:10.37,2013-08-22 16:05:00,
2013-08-22 09:10:00,60.6,38.6,29.71,SSW,198,2.0,5.0,44,0.00,CLR,,0.00,WeatherDisplay:10.37,2013-08-22 16:10:00,
2013-08-22 09:15:00,60.8,38.7,29.71,SSW,212,0.0,3.0,44,0.00,CLR,,0.00,WeatherDisplay:10.37,2013-08-22 16:15:00,
2013-08-22 09:20:00,60.8,38.7,29.71,SE,141,0.0,4.0,44,0.00,CLR,,0.00,WeatherDisplay:10.37,2013-08-22 16:20:00,
2013-08-22 09:25:00,60.8,38.7,29.71,NW,306,0.0,0.0,44,0.00,CLR,,0.00,WeatherDisplay:10.37,2013-08-22 16:25:00,
2013-08-22 09:30:00,61.0,38.9,29.71,West,264,0.0,2.0,44,0.00,CLR,,0.00,WeatherDisplay:10.37,2013-08-22 16:30:00,
2013-08-22 09:35:00,61.0,38.9,29.71,West,274,1.0,6.0,44,0.00,CLR,,0.00,WeatherDisplay:10.37,2013-08-22 16:35:00,
2013-08-22 09:40:00,61.2,39.1,29.71,North,355,0.0,3.0,44,0.00,CLR,,0.00,WeatherDisplay:10.37,2013-08-22 16:40:00,
2013-08-22 09:45:00,61.2,39.1,29.71,East,84,0.0,3.0,44,0.00,CLR,,0.00,WeatherDisplay:10.37,2013-08-22 16:45:00,
2013-08-22 09:50:00,61.2,39.1,29.71,South,189,0.0,3.0,44,0.00,CLR,,0.00,WeatherDisplay:10.37,2013-08-22 16:50:00,
2013-08-22 10:00:00,61.3,39.2,29.74,SSE,168,1.0,6.0,44,0.00,CLR,,0.00,WeatherDisplay:10.37,2013-08-22 17:00:00,
2013-08-22 10:05:00,61.5,39.4,29.74,East,92,0.0,5.0,44,0.00,CLR,,0.00,WeatherDisplay:10.37,2013-08-22 17:05:00,
2013-08-22 10:10:00,61.7,39.6,29.74,NNE,20,0.0,6.0,44,0.00,CLR,,0.00,WeatherDisplay:10.37,2013-08-22 17:10:00,
2013-08-22 10:15:00,61.9,39.7,29.74,North,354,2.0,7.0,44,0.00,CLR,,0.00,WeatherDisplay:10.37,2013-08-22 17:15:00,
2013-08-22 10:20:00,62.1,39.3,29.74,NNW,340,0.0,6.0,43,0.00,CLR,,0.00,WeatherDisplay:10.37,2013-08-22 17:20:00,
2013-08-22 10:25:00,62.2,39.5,29.74,NNW,342,2.0,8.0,43,0.00,CLR,,0.00,WeatherDisplay:10.37,2013-08-22 17:25:00,
2013-08-22 10:30:00,62.4,39.6,29.74,NW,323,2.0,4.0,43,0.00,CLR,,0.00,WeatherDisplay:10.37,2013-08-22 17:30:00,
2013-08-22 10:35:00,62.4,39.0,29.74,NW,316,0.0,3.0,42,0.00,CLR,,0.00,WeatherDisplay:10.37,2013-08-22 17:35:00,
2013-08-22 10:40:00,62.6,39.2,29.74,North,355,3.0,6.0,42,0.00,CLR,,0.00,WeatherDisplay:10.37,2013-08-22 17:40:00,
2013-08-22 10:45:00,62.8,39.3,29.74,North,5,3.0,8.0,42,0.00,CLR,,0.00,WeatherDisplay:10.37,2013-08-22 17:45:00,
2013-08-22 10:50:00,63.0,39.5,29.74,North,2,0.0,6.0,42,0.00,CLR,,0.00,WeatherDisplay:10.37,2013-08-22 17:50:00,
2013-08-22 10:55:00,63.0,38.9,29.74,NNW,347,2.0,5.0,41,0.00,CLR,,0.00,WeatherDisplay:10.37,2013-08-22 17:55:00,
2013-08-22 11:00:00,63.1,39.0,29.74,North,352,0.0,6.0,41,0.00,CLR,,0.00,WeatherDisplay:10.37,2013-08-22 18:00:00,
2013-08-22 11:05:00,63.3,39.2,29.74,NNE,18,3.0,5.0,41,0.00,CLR,,0.00,WeatherDisplay:10.37,2013-08-22 18:05:00,
2013-08-22 11:10:00,63.5,39.4,29.74,SSE,160,2.0,8.0,41,0.00,CLR,,0.00,WeatherDisplay:10.37,2013-08-22 18:10:00,
2013-08-22 11:15:00,63.7,38.9,29.74,WNW,301,2.0,6.0,40,0.00,CLR,,0.00,WeatherDisplay:10.37,2013-08-22 18:15:00,
2013-08-22 11:20:00,63.9,39.1,29.74,NW,321,0.0,5.0,40,0.00,CLR,,0.00,WeatherDisplay:10.37,2013-08-22 18:20:00,
2013-08-22 11:25:00,64.0,39.2,29.74,NNW,339,5.0,8.0,40,0.00,CLR,,0.00,WeatherDisplay:10.37,2013-08-22 18:25:00,
2013-08-22 11:30:00,64.3,38.8,29.74,NE,36,0.0,6.0,39,0.00,CLR,,0.00,WeatherDisplay:10.37,2013-08-22 18:30:00,
2013-08-22 11:35:00,64.6,38.4,29.74,SSE,156,5.0,6.0,38,0.00,CLR,,0.00,WeatherDisplay:10.37,2013-08-22 18:35:00,
2013-08-22 11:40:00,64.6,38.4,29.71,SW,227,3.0,6.0,38,0.00,CLR,,0.00,WeatherDisplay:10.37,2013-08-22 18:40:00,
2013-08-22 11:45:00,64.9,38.7,29.71,SW,215,2.0,8.0,38,0.00,CLR,,0.00,WeatherDisplay:10.37,2013-08-22 18:45:00,
2013-08-22 11:50:00,64.9,38.7,29.71,East,98,2.0,8.0,38,0.00,CLR,,0.00,WeatherDisplay:10.37,2013-08-22 18:50:00,
2013-08-22 12:00:00,65.8,38.8,29.74,East,89,3.0,6.0,37,0.00,CLR,,0.00,WeatherDisplay:10.37,2013-08-22 19:00:00,
2013-08-22 12:05:00,66.4,38.6,29.74,NNE,14,2.0,6.0,36,0.00,CLR,,0.00,WeatherDisplay:10.37,2013-08-22 19:05:00,
2013-08-22 12:10:00,66.4,38.6,29.74,SW,234,3.0,8.0,36,0.00,CLR,,0.00,WeatherDisplay:10.37,2013-08-22 19:10:00,
2013-08-22 12:15:00,67.5,38.8,29.74,SW,225,3.0,8.0,35,0.00,CLR,,0.00,WeatherDisplay:10.37,2013-08-22 19:15:00,
2013-08-22 12:20:00,67.7,39.1,29.74,NNW,334,2.0,6.0,35,0.00,CLR,,0.00,WeatherDisplay:10.37,2013-08-22 19:20:00,
2013-08-22 12:25:00,68.5,39.0,29.71,NNE,20,3.0,6.0,34,0.00,CLR,,0.00,WeatherDisplay:10.37,2013-08-22 19:25:00,
2013-08-22 12:30:00,68.7,39.2,29.71,NNW,340,0.0,8.0,34,0.00,CLR,,0.00,WeatherDisplay:10.37,2013-08-22 19:30:00,
2013-08-22 12:35:00,69.6,39.2,29.71,NNW,331,2.0,6.0,33,0.00,CLR,,0.00,WeatherDisplay:10.37,2013-08-22 19:35:00,
2013-08-22 12:40:00,70.2,39.7,29.71,West,274,3.0,9.0,33,0.00,CLR,,0.00,WeatherDisplay:10.37,2013-08-22 19:40:00,
2013-08-22 12:45:00,71.0,39.6,29.71,NNW,348,5.0,7.0,32,0.00,CLR,,0.00,WeatherDisplay:10.37,2013-08-22 19:45:00,
2013-08-22 12:50:00,71.4,40.0,29.71,NNE,13,5.0,6.0,32,0.00,CLR,,0.00,WeatherDisplay:10.37,2013-08-22 19:50:00,
2013-08-22 12:55:00,72.1,39.8,29.71,NE,34,3.0,8.0,31,0.00,CLR,,0.00,WeatherDisplay:10.37,2013-08-22 19:55:00,
2013-08-22 13:00:00,72.1,39.8,29.71,East,96,3.0,8.0,31,0.00,CLR,,0.00,WeatherDisplay:10.37,2013-08-22 20:00:00,
2013-08-22 13:05:00,72.7,40.3,29.71,ENE,63,0.0,7.0,31,0.00,CLR,,0.00,WeatherDisplay:10.37,2013-08-22 20:05:00,
2013-08-22 13:10:00,72.8,40.4,29.74,WNW,298,6.0,8.0,31,0.00,CLR,,0.00,WeatherDisplay:10.37,2013-08-22 20:10:00,
2013-08-22 13:15:00,72.9,38.7,29.74,WNW,289,2.0,9.0,29,0.00,CLR,,0.00,WeatherDisplay:10.37,2013-08-22 20:15:00,
2013-08-22 13:20:00,72.7,37.7,29.74,NE,35,2.0,9.0,28,0.00,CLR,,0.00,WeatherDisplay:10.37,2013-08-22 20:20:00,
2013-08-22 13:25:00,72.3,37.4,29.71,NNW,338,3.0,8.0,28,0.00,CLR,,0.00,WeatherDisplay:10.37,2013-08-22 20:25:00,
2013-08-22 13:30:00,72.0,36.1,29.71,NNE,18,2.0,9.0,27,0.00,CLR,,0.00,WeatherDisplay:10.37,2013-08-22 20:30:00,
2013-08-22 13:35:00,71.3,35.6,29.71,NNE,24,3.0,10.0,27,0.00,CLR,,0.00,WeatherDisplay:10.37,2013-08-22 20:35:00,
2013-08-22 13:40:00,71.2,36.4,29.71,NW,313,3.0,8.0,28,0.00,CLR,,0.00,WeatherDisplay:10.37,2013-08-22 20:40:00,
2013-08-22 13:45:00,70.6,35.9,29.71,West,269,3.0,9.0,28,0.00,CLR,,0.00,WeatherDisplay:10.37,2013-08-22 20:45:00,
2013-08-22 13:50:00,70.0,35.4,29.71,WNW,302,3.0,8.0,28,0.00,CLR,,0.00,WeatherDisplay:10.37,2013-08-22 20:50:00,
2013-08-22 13:55:00,69.6,35.9,29.74,WNW,296,3.0,9.0,29,0.00,CLR,,0.00,WeatherDisplay:10.37,2013-08-22 20:55:00,
2013-08-22 14:00:00,69.4,35.8,29.74,NNE,17,5.0,8.0,29,0.00,CLR,,0.00,WeatherDisplay:10.37,2013-08-22 21:00:00,
2013-08-22 14:05:00,69.1,35.5,29.74,WNW,292,6.0,10.0,29,0.00,CLR,,0.00,WeatherDisplay:10.37,2013-08-22 21:05:00,
2013-08-22 14:10:00,68.7,36.0,29.71,NW,313,3.0,10.0,30,0.00,CLR,,0.00,WeatherDisplay:10.37,2013-08-22 21:10:00,
2013-08-22 14:15:00,68.5,35.0,29.71,South,185,5.0,8.0,29,0.00,CLR,,0.00,WeatherDisplay:10.37,2013-08-22 21:15:00,
2013-08-22 14:20:00,68.4,34.8,29.71,South,191,5.0,9.0,29,0.00,CLR,,0.00,WeatherDisplay:10.37,2013-08-22 21:20:00,
2013-08-22 14:25:00,68.4,35.7,29.71,SSE,166,5.0,8.0,30,0.00,CLR,,0.00,WeatherDisplay:10.37,2013-08-22 21:25:00,
2013-08-22 14:30:00,68.0,35.4,29.71,South,182,5.0,8.0,30,0.00,CLR,,0.00,WeatherDisplay:10.37,2013-08-22 21:30:00,
2013-08-22 14:35:00,67.8,35.2,29.71,SE,131,5.0,10.0,30,0.00,CLR,,0.00,WeatherDisplay:10.37,2013-08-22 21:35:00,
2013-08-22 14:40:00,67.6,35.1,29.71,ESE,118,3.0,12.0,30,0.00,CLR,,0.00,WeatherDisplay:10.37,2013-08-22 21:40:00,
2013-08-22 14:45:00,67.5,34.9,29.71,SSE,162,3.0,9.0,30,0.00,CLR,,0.00,WeatherDisplay:10.37,2013-08-22 21:45:00,
2013-08-22 14:50:00,67.3,35.6,29.71,SE,141,5.0,8.0,31,0.00,CLR,,0.00,WeatherDisplay:10.37,2013-08-22 21:50:00,
2013-08-22 14:55:00,67.3,35.6,29.71,NE,43,5.0,10.0,31,0.00,CLR,,0.00,WeatherDisplay:10.37,2013-08-22 21:55:00,
2013-08-22 15:00:00,67.1,36.2,29.71,SSE,161,6.0,10.0,32,0.00,CLR,,0.00,WeatherDisplay:10.37,2013-08-22 22:00:00,
2013-08-22 15:05:00,66.9,35.3,29.71,SSW,192,7.0,9.0,31,0.00,CLR,,0.00,WeatherDisplay:10.37,2013-08-22 22:05:00,
2013-08-22 15:10:00,66.9,36.1,29.71,NNE,20,5.0,6.0,32,0.00,CLR,,0.00,WeatherDisplay:10.37,2013-08-22 22:10:00,
2013-08-22 15:15:00,66.7,35.9,29.71,NNW,335,5.0,8.0,32,0.00,CLR,,0.00,WeatherDisplay:10.37,2013-08-22 22:15:00,
2013-08-22 15:20:00,66.7,35.9,29.71,WSW,239,5.0,8.0,32,0.00,CLR,,0.00,WeatherDisplay:10.37,2013-08-22 22:20:00,
2013-08-22 15:25:00,66.6,35.8,29.68,WSW,239,3.0,10.0,32,0.00,CLR,,0.00,WeatherDisplay:10.37,2013-08-22 22:25:00,
2013-08-22 15:30:00,66.4,35.6,29.68,SW,236,6.0,12.0,32,0.00,CLR,,0.00,WeatherDisplay:10.37,2013-08-22 22:30:00,
2013-08-22 15:40:00,66.4,35.6,29.68,SSW,203,5.0,10.0,32,0.00,CLR,,0.00,WeatherDisplay:10.37,2013-08-22 22:40:00,
2013-08-22 15:45:00,66.2,35.4,29.68,SSW,207,7.0,13.0,32,0.00,CLR,,0.00,WeatherDisplay:10.37,2013-08-22 22:45:00,
2013-08-22 15:50:00,66.0,35.3,29.68,SSW,213,5.0,12.0,32,0.00,CLR,,0.00,WeatherDisplay:10.37,2013-08-22 22:50:00,
2013-08-22 15:55:00,65.9,35.1,29.68,South,189,5.0,14.0,32,0.00,CLR,,0.00,WeatherDisplay:10.37,2013-08-22 22:55:00,
2013-08-22 16:00:00,65.8,35.9,29.68,SSE,167,7.0,12.0,33,0.00,CLR,,0.00,WeatherDisplay:10.37,2013-08-22 23:00:00,
2013-08-22 16:05:00,65.7,35.8,29.68,SW,229,5.0,10.0,33,0.00,CLR,,0.00,WeatherDisplay:10.37,2013-08-22 23:05:00,
2013-08-22 16:10:00,65.7,35.8,29.68,WSW,250,6.0,10.0,33,0.00,CLR,,0.00,WeatherDisplay:10.37,2013-08-22 23:10:00,
2013-08-22 16:20:00,65.5,35.6,29.68,West,263,7.0,10.0,33,0.00,CLR,,0.00,WeatherDisplay:10.37,2013-08-22 23:20:00,
2013-08-22 16:25:00,65.5,35.6,29.68,SW,229,2.0,8.0,33,0.00,CLR,,0.00,WeatherDisplay:10.37,2013-08-22 23:25:00,
2013-08-22 16:30:00,65.3,35.4,29.68,South,186,6.0,13.0,33,0.00,CLR,,0.00,WeatherDisplay:10.37,2013-08-22 23:30:00,
2013-08-22 16:35:00,65.3,35.4,29.68,SSW,213,6.0,10.0,33,0.00,CLR,,0.00,WeatherDisplay:10.37,2013-08-22 23:35:00,
2013-08-22 16:40:00,65.2,35.4,29.68,SW,233,6.0,12.0,33,0.00,CLR,,0.00,WeatherDisplay:10.37,2013-08-22 23:40:00,
2013-08-22 16:45:00,65.1,35.3,29.68,SE,145,6.0,10.0,33,0.00,CLR,,0.00,WeatherDisplay:10.37,2013-08-22 23:45:00,
2013-08-22 16:50:00,64.9,35.1,29.68,South,189,6.0,9.0,33,0.00,CLR,,0.00,WeatherDisplay:10.37,2013-08-22 23:50:00,
2013-08-22 16:55:00,64.9,35.1,29.65,SSW,205,7.0,10.0,33,0.00,CLR,,0.00,WeatherDisplay:10.37,2013-08-22 23:55:00,
2013-08-22 17:00:00,64.8,35.0,29.65,South,186,6.0,10.0,33,0.00,CLR,,0.00,WeatherDisplay:10.37,2013-08-23 00:00:00,
2013-08-22 17:05:00,64.8,35.0,29.65,SSE,153,2.0,8.0,33,0.00,CLR,,0.00,WeatherDisplay:10.37,2013-08-23 00:05:00,
2013-08-22 17:10:00,64.8,35.0,29.65,SSE,151,5.0,9.0,33,0.00,CLR,,0.00,WeatherDisplay:10.37,2013-08-23 00:10:00,
2013-08-22 17:15:00,64.6,34.8,29.65,SSE,161,5.0,8.0,33,0.00,CLR,,0.00,WeatherDisplay:10.37,2013-08-23 00:15:00,
2013-08-22 17:20:00,64.6,34.8,29.65,South,173,5.0,8.0,33,0.00,CLR,,0.00,WeatherDisplay:10.37,2013-08-23 00:20:00,
2013-08-22 17:25:00,64.6,34.8,29.65,SSW,192,7.0,10.0,33,0.00,CLR,,0.00,WeatherDisplay:10.37,2013-08-23 00:25:00,
2013-08-22 17:30:00,64.2,34.5,29.65,SSW,196,7.0,12.0,33,0.00,CLR,,0.00,WeatherDisplay:10.37,2013-08-23 00:30:00,
2013-08-22 17:35:00,64.2,34.5,29.65,SSW,207,6.0,10.0,33,0.00,CLR,,0.00,WeatherDisplay:10.37,2013-08-23 00:35:00,
2013-08-22 17:40:00,64.2,34.5,29.65,SW,215,6.0,10.0,33,0.00,CLR,,0.00,WeatherDisplay:10.37,2013-08-23 00:40:00,
2013-08-22 17:45:00,63.9,35.0,29.65,SW,219,7.0,14.0,34,0.00,CLR,,0.00,WeatherDisplay:10.37,2013-08-23 00:45:00,
2013-08-22 17:50:00,63.9,34.9,29.65,WSW,249,6.0,9.0,34,0.00,CLR,,0.00,WeatherDisplay:10.37,2013-08-23 00:50:00,
2013-08-22 17:55:00,63.7,34.8,29.65,SW,227,7.0,10.0,34,0.00,CLR,,0.00,WeatherDisplay:10.37,2013-08-23 00:55:00,
2013-08-22 18:00:00,63.5,34.6,29.65,SW,214,6.0,10.0,34,0.00,CLR,,0.00,WeatherDisplay:10.37,2013-08-23 01:00:00,
2013-08-22 18:05:00,63.5,34.6,29.65,SW,222,6.0,14.0,34,0.00,CLR,,0.00,WeatherDisplay:10.37,2013-08-23 01:05:00,
2013-08-22 18:10:00,63.3,34.4,29.65,SSW,194,6.0,14.0,34,0.00,CLR,,0.00,WeatherDisplay:10.37,2013-08-23 01:10:00,
2013-08-22 18:15:00,63.1,34.3,29.65,South,185,7.0,9.0,34,0.00,CLR,,0.00,WeatherDisplay:10.37,2013-08-23 01:15:00,
2013-08-22 18:20:00,63.1,34.3,29.65,SSW,197,5.0,9.0,34,0.00,CLR,,0.00,WeatherDisplay:10.37,2013-08-23 01:20:00,
2013-08-22 18:25:00,63.0,34.9,29.65,SW,215,5.0,8.0,35,0.00,CLR,,0.00,WeatherDisplay:10.37,2013-08-23 01:25:00,
2013-08-22 18:30:00,62.9,34.8,29.65,SW,227,6.0,8.0,35,0.00,CLR,,0.00,WeatherDisplay:10.37,2013-08-23 01:30:00,
2013-08-22 18:35:00,62.8,34.8,29.65,SSW,208,6.0,8.0,35,0.00,CLR,,0.00,WeatherDisplay:10.37,2013-08-23 01:35:00,
2013-08-22 18:40:00,62.8,34.7,29.65,South,186,3.0,7.0,35,0.00,CLR,,0.00,WeatherDisplay:10.37,2013-08-23 01:40:00,
2013-08-22 18:45:00,62.8,34.7,29.65,East,82,0.0,14.0,35,0.00,CLR,,0.00,WeatherDisplay:10.37,2013-08-23 01:45:00,
2013-08-22 18:50:00,62.6,34.5,29.65,ESE,104,3.0,6.0,35,0.00,CLR,,0.00,WeatherDisplay:10.37,2013-08-23 01:50:00,
2013-08-22 18:55:00,62.4,34.4,29.65,SE,139,5.0,9.0,35,0.00,CLR,,0.00,WeatherDisplay:10.37,2013-08-23 01:55:00,
2013-08-22 19:00:00,62.4,34.4,29.65,SSE,168,3.0,9.0,35,0.00,CLR,,0.00,WeatherDisplay:10.37,2013-08-23 02:00:00,
2013-08-22 19:05:00,62.2,34.9,29.65,SSE,164,3.0,6.0,36,0.00,CLR,,0.00,WeatherDisplay:10.37,2013-08-23 02:05:00,
2013-08-22 19:10:00,62.2,34.9,29.65,ESE,117,3.0,7.0,36,0.00,CLR,,0.00,WeatherDisplay:10.37,2013-08-23 02:10:00,
2013-08-22 19:15:00,62.2,34.9,29.65,East,93,3.0,7.0,36,0.00,CLR,,0.00,WeatherDisplay:10.37,2013-08-23 02:15:00,
2013-08-22 19:20:00,62.2,34.9,29.65,NE,40,2.0,8.0,36,0.00,CLR,,0.00,WeatherDisplay:10.37,2013-08-23 02:20:00,
2013-08-22 19:25:00,62.3,35.0,29.65,NNE,32,3.0,6.0,36,0.00,CLR,,0.00,WeatherDisplay:10.37,2013-08-23 02:25:00,
2013-08-22 19:30:00,62.4,35.1,29.65,NE,41,0.0,6.0,36,0.00,CLR,,0.00,WeatherDisplay:10.37,2013-08-23 02:30:00,
2013-08-22 19:35:00,62.2,34.9,29.65,NE,40,2.0,5.0,36,0.00,CLR,,0.00,WeatherDisplay:10.37,2013-08-23 02:35:00,
2013-08-22 19:40:00,62.1,35.5,29.65,NNE,20,0.0,6.0,37,0.00,CLR,,0.00,WeatherDisplay:10.37,2013-08-23 02:40:00,
2013-08-22 19:45:00,62.1,35.5,29.65,NE,36,0.0,6.0,37,0.00,CLR,,0.00,WeatherDisplay:10.37,2013-08-23 02:45:00,
2013-08-22 19:50:00,62.1,35.5,29.65,ENE,67,3.0,6.0,37,0.00,CLR,,0.00,WeatherDisplay:10.37,2013-08-23 02:50:00,
2013-08-22 19:55:00,61.9,35.3,29.65,ENE,67,0.0,8.0,37,0.00,CLR,,0.00,WeatherDisplay:10.37,2013-08-23 02:55:00,
2013-08-22 20:00:00,61.9,35.3,29.65,ENE,58,0.0,6.0,37,0.00,CLR,,0.00,WeatherDisplay:10.37,2013-08-23 03:00:00,
2013-08-22 20:05:00,61.9,35.3,29.65,East,84,0.0,5.0,37,0.00,CLR,,0.00,WeatherDisplay:10.37,2013-08-23 03:05:00,
2013-08-22 20:10:00,61.9,35.3,29.68,East,80,3.0,5.0,37,0.00,CLR,,0.00,WeatherDisplay:10.37,2013-08-23 03:10:00,
2013-08-22 20:15:00,61.9,35.3,29.68,NE,45,3.0,9.0,37,0.00,CLR,,0.00,WeatherDisplay:10.37,2013-08-23 03:15:00,
2013-08-22 20:20:00,61.9,36.0,29.68,North,6,0.0,6.0,38,0.00,CLR,,0.00,WeatherDisplay:10.37,2013-08-23 03:20:00,
2013-08-22 20:25:00,61.9,36.0,29.68,North,3,5.0,8.0,38,0.00,CLR,,0.00,WeatherDisplay:10.37,2013-08-23 03:25:00,
2013-08-22 20:30:00,61.9,36.0,29.68,SW,236,3.0,8.0,38,0.00,CLR,,0.00,WeatherDisplay:10.37,2013-08-23 03:30:00,
2013-08-22 20:35:00,61.9,36.0,29.68,WSW,241,3.0,7.0,38,0.00,CLR,,0.00,WeatherDisplay:10.37,2013-08-23 03:35:00,
2013-08-22 20:40:00,61.9,36.0,29.68,WNW,300,0.0,6.0,38,0.00,CLR,,0.00,WeatherDisplay:10.37,2013-08-23 03:40:00,
2013-08-22 20:45:00,61.7,35.8,29.68,NNW,336,0.0,6.0,38,0.00,CLR,,0.00,WeatherDisplay:10.37,2013-08-23 03:45:00,
2013-08-22 20:50:00,61.9,36.0,29.68,NE,38,0.0,6.0,38,0.00,CLR,,0.00,WeatherDisplay:10.37,2013-08-23 03:50:00,
2013-08-22 20:55:00,61.5,35.7,29.68,North,357,2.0,5.0,38,0.00,CLR,,0.00,WeatherDisplay:10.37,2013-08-23 03:55:00,
2013-08-22 21:00:00,61.7,35.8,29.68,WNW,300,2.0,7.0,38,0.00,CLR,,0.00,WeatherDisplay:10.37,2013-08-23 04:00:00,
2013-08-22 21:05:00,61.7,35.8,29.68,ENE,57,3.0,6.0,38,0.00,CLR,,0.00,WeatherDisplay:10.37,2013-08-23 04:05:00,
2013-08-22 21:10:00,61.7,35.8,29.68,East,88,0.0,7.0,38,0.00,CLR,,0.00,WeatherDisplay:10.37,2013-08-23 04:10:00,
2013-08-22 21:15:00,61.5,35.7,29.68,ENE,67,3.0,7.0,38,0.00,CLR,,0.00,WeatherDisplay:10.37,2013-08-23 04:15:00,
2013-08-22 21:20:00,61.7,35.8,29.68,NE,35,2.0,5.0,38,0.00,CLR,,0.00,WeatherDisplay:10.37,2013-08-23 04:20:00,
2013-08-22 21:25:00,61.8,35.9,29.68,NE,36,5.0,8.0,38,0.00,CLR,,0.00,WeatherDisplay:10.37,2013-08-23 04:25:00,
2013-08-22 21:30:00,61.7,35.8,29.68,NE,43,2.0,4.0,38,0.00,CLR,,0.00,WeatherDisplay:10.37,2013-08-23 04:30:00,
2013-08-22 21:35:00,61.4,35.5,29.68,NE,35,5.0,6.0,38,0.00,CLR,,0.00,WeatherDisplay:10.37,2013-08-23 04:35:00,
2013-08-22 21:40:00,61.5,35.7,29.68,NE,42,0.0,3.0,38,0.00,CLR,,0.00,WeatherDisplay:10.37,2013-08-23 04:40:00,
2013-08-22 21:45:00,61.5,35.6,29.68,ESE,103,0.0,3.0,38,0.00,CLR,,0.00,WeatherDisplay:10.37,2013-08-23 04:45:00,
2013-08-22 21:50:00,61.5,35.7,29.68,East,80,5.0,6.0,38,0.00,CLR,,0.00,WeatherDisplay:10.37,2013-08-23 04:50:00,
2013-08-22 21:55:00,61.3,35.5,29.68,ENE,77,3.0,6.0,38,0.00,CLR,,0.00,WeatherDisplay:10.37,2013-08-23 04:55:00,
2013-08-22 22:00:00,61.3,35.5,29.68,ENE,73,0.0,4.0,38,0.00,CLR,,0.00,WeatherDisplay:10.37,2013-08-23 05:00:00,
2013-08-22 22:05:00,61.3,35.5,29.68,NNE,16,0.0,3.0,38,0.00,CLR,,0.00,WeatherDisplay:10.37,2013-08-23 05:05:00,
2013-08-22 22:10:00,61.3,35.5,29.68,NNE,33,0.0,6.0,38,0.00,CLR,,0.00,WeatherDisplay:10.37,2013-08-23 05:10:00,
2013-08-22 22:15:00,61.3,35.5,29.68,North,352,0.0,3.0,38,0.00,CLR,,0.00,WeatherDisplay:10.37,2013-08-23 05:15:00,
2013-08-22 22:20:00,61.3,35.4,29.68,NNW,332,0.0,3.0,38,0.00,CLR,,0.00,WeatherDisplay:10.37,2013-08-23 05:20:00,
2013-08-22 22:25:00,61.2,35.3,29.68,WNW,300,2.0,5.0,38,0.00,CLR,,0.00,WeatherDisplay:10.37,2013-08-23 05:25:00,
2013-08-22 22:30:00,61.2,36.0,29.68,NNW,336,0.0,5.0,39,0.00,CLR,,0.00,WeatherDisplay:10.37,2013-08-23 05:30:00,
2013-08-22 22:35:00,61.2,36.0,29.68,NW,315,0.0,5.0,39,0.00,CLR,,0.00,WeatherDisplay:10.37,2013-08-23 05:35:00,
2013-08-22 22:40:00,61.2,36.0,29.68,West,280,0.0,5.0,39,0.00,CLR,,0.00,WeatherDisplay:10.37,2013-08-23 05:40:00,
2013-08-22 22:45:00,61.2,36.0,29.68,NW,308,3.0,6.0,39,0.00,CLR,,0.00,WeatherDisplay:10.37,2013-08-23 05:45:00,
2013-08-22 22:50:00,61.2,36.0,29.68,NNW,334,0.0,4.0,39,0.00,CLR,,0.00,WeatherDisplay:10.37,2013-08-23 05:50:00,
2013-08-22 22:55:00,61.2,36.0,29.68,East,82,2.0,6.0,39,0.00,CLR,,0.00,WeatherDisplay:10.37,2013-08-23 05:55:00,
2013-08-22 23:00:00,61.2,36.0,29.68,SE,125,0.0,5.0,39,0.00,CLR,,0.00,WeatherDisplay:10.37,2013-08-23 06:00:00,
2013-08-22 23:05:00,61.1,35.9,29.68,ESE,121,0.0,5.0,39,0.00,CLR,,0.00,WeatherDisplay:10.37,2013-08-23 06:05:00,
2013-08-22 23:10:00,61.0,35.8,29.68,ESE,112,5.0,8.0,39,0.00,CLR,,0.00,WeatherDisplay:10.37,2013-08-23 06:10:00,
2013-08-22 23:15:00,61.2,36.0,29.68,SW,236,0.0,5.0,39,0.00,CLR,,0.00,WeatherDisplay:10.37,2013-08-23 06:15:00,
2013-08-22 23:20:00,61.0,36.5,29.68,NW,305,0.0,6.0,40,0.00,CLR,,0.00,WeatherDisplay:10.37,2013-08-23 06:20:00,
2013-08-22 23:25:00,61.1,36.5,29.68,NNE,17,0.0,5.0,40,0.00,CLR,,0.00,WeatherDisplay:10.37,2013-08-23 06:25:00,
2013-08-22 23:30:00,61.0,36.5,29.68,NW,312,2.0,7.0,40,0.00,CLR,,0.00,WeatherDisplay:10.37,2013-08-23 06:30:00,
2013-08-22 23:35:00,61.0,36.5,29.68,WNW,286,0.0,5.0,40,0.00,CLR,,0.00,WeatherDisplay:10.37,2013-08-23 06:35:00,
2013-08-22 23:40:00,61.0,36.5,29.68,NNW,345,2.0,4.0,40,0.00,CLR,,0.00,WeatherDisplay:10.37,2013-08-23 06:40:00,
2013-08-22 23:45:00,61.0,36.5,29.68,West,262,2.0,5.0,40,0.00,CLR,,0.00,WeatherDisplay:10.37,2013-08-23 06:45:00,
2013-08-22 23:50:00,61.0,37.1,29.68,WSW,257,2.0,5.0,41,0.00,CLR,,0.00,WeatherDisplay:10.37,2013-08-23 06:50:00,
2013-08-22 23:55:00,61.0,37.1,29.68,NNW,343,0.0,3.0,41,0.00,CLR,,0.00,WeatherDisplay:10.37,2013-08-23 06:55:00,